When you browse on this site, cookies collect data to enhance your experience and personalize the content and advertising you see.
Visit our Privacy Policy to learn more. By continuing to use the site, you agree to this use of cookies and data.
  • In Romania
  • List of Countries
  • For 7 days
  • Water Temperature
  • Satellite Maps
  • Weather Map
  • Weather Widgets
  • user-avatar
    Login

    Hourly Weather Iskra

    Today, 25 April, Thursday

    Time Temperature Precipitation Wind Pressure Humidity
    00:00 +10°C° 0 mm 1 mps 751 mmHg 67%
    01:00 +10°C° 0 mm 1 mps 751 mmHg 67%
    02:00 +9°C° 0 mm 1 mps 751 mmHg 67%
    03:00 +8°C° 0 mm 2 mps 751 mmHg 66%
    04:00 +7°C° 0 mm 2 mps 751 mmHg 66%
    05:00 +7°C° 0 mm 2 mps 751 mmHg 66%
    06:00 +9°C° 0 mm 2 mps 751 mmHg 59%
    07:00 +12°C° 0 mm 2 mps 751 mmHg 52%
    08:00 +14°C° 0 mm 2 mps 751 mmHg 46%
    09:00 +16°C° 0 mm 2 mps 751 mmHg 41%
    10:00 +17°C° 0 mm 3 mps 751 mmHg 36%
    11:00 +19°C° 0 mm 3 mps 751 mmHg 31%
    12:00 +19°C° 0 mm 3 mps 751 mmHg 29%
    13:00 +20°C° 0 mm 3 mps 750 mmHg 28%
    14:00 +20°C° 0 mm 3 mps 750 mmHg 27%
    15:00 +20°C° 0 mm 2 mps 750 mmHg 30%
    16:00 +20°C° 0 mm 2 mps 750 mmHg 32%
    17:00 +20°C° 0 mm 1 mps 749 mmHg 35%
    18:00 +18°C° 0 mm 1 mps 749 mmHg 39%
    19:00 +15°C° 0 mm 1 mps 749 mmHg 43%
    20:00 +13°C° 0 mm 1 mps 749 mmHg 47%
    21:00 +12°C° 0 mm 1 mps 749 mmHg 49%
    22:00 +12°C° 0 mm 1 mps 749 mmHg 52%
    23:00 +11°C° 0 mm 1 mps 749 mmHg 55%

    Tomorrow, 26 April, Friday

    Time Temperature Precipitation Wind Pressure Humidity
    00:00 +10°C° 0 mm 1 mps 749 mmHg 60%
    01:00 +10°C° 0 mm 1 mps 749 mmHg 66%
    02:00 +9°C° 0 mm 1 mps 750 mmHg 72%
    03:00 +9°C° 0 mm 1 mps 750 mmHg 76%
    04:00 +9°C° 0 mm 1 mps 750 mmHg 80%
    05:00 +9°C° 0 mm 1 mps 750 mmHg 84%
    06:00 +11°C° 0 mm 1 mps 750 mmHg 78%
    07:00 +13°C° 0 mm 1 mps 750 mmHg 72%
    08:00 +15°C° 0 mm 2 mps 750 mmHg 65%
    09:00 +16°C° 0 mm 1 mps 750 mmHg 59%
    10:00 +19°C° 0 mm 1 mps 749 mmHg 53%
    11:00 +20°C° 0 mm 1 mps 749 mmHg 46%
    12:00 +21°C° 0 mm 1 mps 749 mmHg 43%
    13:00 +22°C° 0 mm 1 mps 748 mmHg 40%
    14:00 +21°C° 0 mm 0 mps 748 mmHg 37%
    15:00 +20°C° 0 mm 0 mps 747 mmHg 40%
    16:00 +21°C° 0 mm 1 mps 747 mmHg 43%
    17:00 +20°C° 0 mm 1 mps 746 mmHg 45%
    18:00 +18°C° 0 mm 1 mps 746 mmHg 52%
    19:00 +15°C° 0 mm 1 mps 746 mmHg 58%
    20:00 +13°C° 0 mm 2 mps 746 mmHg 65%
    21:00 +13°C° 0.3 mm 1 mps 745 mmHg 69%
    22:00 +12°C° 0.3 mm 1 mps 745 mmHg 73%
    23:00 +12°C° 0.3 mm 1 mps 745 mmHg 78%

    Day after tomorrow, 27 April, Saturday

    Time Temperature Precipitation Wind Pressure Humidity
    00:00 +12°C° 0.1 mm 1 mps 745 mmHg 80%
    01:00 +12°C° 0.1 mm 1 mps 744 mmHg 82%
    02:00 +12°C° 0.1 mm 1 mps 744 mmHg 85%
    03:00 +12°C° 0 mm 1 mps 743 mmHg 85%
    04:00 +12°C° 0 mm 1 mps 743 mmHg 86%
    05:00 +11°C° 0 mm 1 mps 742 mmHg 86%
    06:00 +13°C° 0 mm 1 mps 742 mmHg 80%
    07:00 +14°C° 0 mm 1 mps 742 mmHg 74%
    08:00 +16°C° 0 mm 2 mps 742 mmHg 67%
    09:00 +17°C° 0 mm 2 mps 741 mmHg 60%
    10:00 +18°C° 0 mm 2 mps 741 mmHg 52%
    11:00 +19°C° 0 mm 2 mps 741 mmHg 45%
    12:00 +19°C° 0 mm 2 mps 740 mmHg 44%
    13:00 +19°C° 0 mm 2 mps 740 mmHg 44%
    14:00 +19°C° 0 mm 2 mps 740 mmHg 43%
    15:00 +18°C° 0 mm 2 mps 740 mmHg 46%
    16:00 +17°C° 0 mm 2 mps 740 mmHg 49%
    17:00 +16°C° 0 mm 2 mps 739 mmHg 51%
    18:00 +14°C° 0 mm 3 mps 740 mmHg 54%
    19:00 +13°C° 0 mm 4 mps 740 mmHg 57%
    20:00 +12°C° 0 mm 5 mps 741 mmHg 59%
    21:00 +10°C° 0 mm 5 mps 741 mmHg 62%
    22:00 +8°C° 0 mm 5 mps 742 mmHg 64%
    23:00 +7°C° 0 mm 5 mps 742 mmHg 67%

    28 April, Sunday

    Time Temperature Precipitation Wind Pressure Humidity
    00:00 +6°C° 0 mm 5 mps 743 mmHg 67%
    01:00 +5°C° 0 mm 4 mps 743 mmHg 66%
    02:00 +4°C° 0 mm 4 mps 744 mmHg 66%
    03:00 +3°C° 0 mm 4 mps 744 mmHg 67%
    04:00 +1°C° 0 mm 4 mps 745 mmHg 68%
    05:00 0°C° 0 mm 4 mps 746 mmHg 70%
    06:00 +1°C° 0 mm 4 mps 746 mmHg 66%
    07:00 +1°C° 0 mm 4 mps 747 mmHg 63%
    08:00 +3°C° 0 mm 4 mps 747 mmHg 60%
    09:00 +3°C° 0 mm 5 mps 747 mmHg 53%
    10:00 +3°C° 0 mm 5 mps 748 mmHg 46%
    11:00 +5°C° 0 mm 5 mps 748 mmHg 39%
    12:00 +5°C° 0 mm 5 mps 748 mmHg 39%
    13:00 +6°C° 0 mm 4 mps 749 mmHg 38%
    14:00 +6°C° 0 mm 4 mps 749 mmHg 37%
    15:00 +6°C° 0 mm 4 mps 749 mmHg 39%
    16:00 +5°C° 0 mm 4 mps 749 mmHg 40%
    17:00 +5°C° 0 mm 4 mps 750 mmHg 41%
    18:00 +4°C° 0 mm 3 mps 750 mmHg 46%
    19:00 +2°C° 0 mm 3 mps 751 mmHg 51%
    20:00 +2°C° 0 mm 2 mps 751 mmHg 55%
    21:00 +2°C° 0 mm 2 mps 751 mmHg 58%
    22:00 +1°C° 0 mm 2 mps 752 mmHg 60%
    23:00 -1°C° 0 mm 2 mps 752 mmHg 62%

    29 April, Monday

    Time Temperature Precipitation Wind Pressure Humidity
    00:00 -1°C° 0 mm 2 mps 752 mmHg 63%
    01:00 -2°C° 0 mm 2 mps 753 mmHg 65%
    02:00 -2°C° 0 mm 2 mps 753 mmHg 67%
    03:00 -2°C° 0 mm 2 mps 753 mmHg 66%
    04:00 -2°C° 0 mm 2 mps 753 mmHg 64%
    05:00 -2°C° 0 mm 2 mps 753 mmHg 63%
    06:00 +1°C° 0 mm 2 mps 753 mmHg 55%
    07:00 +2°C° 0 mm 2 mps 753 mmHg 48%
    08:00 +4°C° 0 mm 2 mps 753 mmHg 40%
    09:00 +5°C° 0 mm 2 mps 753 mmHg 37%
    10:00 +6°C° 0 mm 2 mps 753 mmHg 34%
    11:00 +7°C° 0 mm 2 mps 753 mmHg 32%
    12:00 +8°C° 0 mm 2 mps 753 mmHg 31%
    13:00 +8°C° 0 mm 2 mps 753 mmHg 30%
    14:00 +9°C° 0 mm 2 mps 752 mmHg 29%
    15:00 +8°C° 0 mm 2 mps 752 mmHg 30%
    16:00 +8°C° 0 mm 2 mps 752 mmHg 31%
    17:00 +8°C° 0 mm 2 mps 752 mmHg 32%
    18:00 +6°C° 0 mm 2 mps 752 mmHg 38%
    19:00 +4°C° 0 mm 2 mps 752 mmHg 44%
    20:00 +4°C° 0 mm 1 mps 752 mmHg 50%
    21:00 +3°C° 0 mm 1 mps 753 mmHg 52%
    22:00 +2°C° 0 mm 1 mps 753 mmHg 54%
    23:00 +1°C° 0 mm 0 mps 753 mmHg 55%

    30 April, Tuesday

    Time Temperature Precipitation Wind Pressure Humidity
    00:00 0°C° 0 mm 0 mps 753 mmHg 56%
    01:00 0°C° 0 mm 0 mps 753 mmHg 57%
    02:00 0°C° 0 mm 0 mps 753 mmHg 58%
    03:00 +1°C° 0 mm 1 mps 753 mmHg 58%
    04:00 +1°C° 0 mm 1 mps 753 mmHg 58%
    05:00 +1°C° 0 mm 1 mps 753 mmHg 58%
    06:00 +4°C° 0 mm 1 mps 753 mmHg 52%
    07:00 +6°C° 0 mm 1 mps 753 mmHg 46%
    08:00 +7°C° 0 mm 2 mps 753 mmHg 40%
    09:00 +8°C° 0 mm 2 mps 752 mmHg 39%
    10:00 +9°C° 0 mm 2 mps 752 mmHg 37%
    11:00 +12°C° 0 mm 2 mps 752 mmHg 35%
    12:00 +12°C° 0 mm 2 mps 751 mmHg 34%
    13:00 +12°C° 0 mm 3 mps 750 mmHg 33%
    14:00 +12°C° 0 mm 3 mps 750 mmHg 33%
    15:00 +12°C° 0 mm 3 mps 749 mmHg 34%
    16:00 +12°C° 0 mm 3 mps 748 mmHg 36%
    17:00 +11°C° 0 mm 3 mps 748 mmHg 37%
    18:00 +10°C° 0 mm 3 mps 748 mmHg 44%
    19:00 +8°C° 0 mm 2 mps 747 mmHg 50%
    20:00 +6°C° 0 mm 2 mps 747 mmHg 57%
    21:00 +5°C° 0 mm 2 mps 747 mmHg 59%
    22:00 +5°C° 0 mm 2 mps 746 mmHg 61%
    23:00 +4°C° 0 mm 2 mps 746 mmHg 63%
    Show more